EW8409 Weather Reports


time (UTC)temp
F
wind
direction
speed
knots
gust
knots
rain 1hr
in
rain 24hr
in
rain mn
in
humidity
%
barometer
mb
20260906210055 68 287 0.0 0.0 0.00 0.00 0.00 68 1018.6
20260906204543 68 340 0.0 0.0 0.00 0.00 0.00 69 1018.7
20260906203041 68 93 0.0 0.9 0.00 0.00 0.00 70 1018.5
20260906201541 68 8 0.0 0.9 0.00 0.00 0.00 66 1018.5
20260906200049 68 72 0.0 0.0 0.00 0.00 0.00 70 1018.5
20260906194541 67 79 0.0 0.0 0.00 0.00 0.00 71 1018.7
20260906193038 69 50 0.0 0.0 0.00 0.00 0.00 71 1018.6
20260906191543 68 68 0.0 1.7 0.00 0.00 0.00 71 1018.6
20260906190043 69 83 0.0 0.9 0.00 0.00 0.00 70 1018.4
20260906184538 68 75 0.0 2.6 0.00 0.00 0.00 71 1018.6
20260906183038 68 89 0.0 0.0 0.00 0.00 0.00 71 1018.6
20260906181539 69 85 0.0 0.9 0.00 0.00 0.00 73 1018.7
20260906180035 69 86 0.0 2.6 0.00 0.00 0.00 71 1018.6
20260906174534 68 70 0.0 0.0 0.00 0.00 0.00 75 1018.6
20260906173043 69 64 0.0 0.0 0.00 0.00 0.00 71 1018.6
20260906171533 68 6 0.0 1.7 0.00 0.00 0.00 70 1018.7
20260906170033 69 333 0.0 0.9 0.00 0.00 0.00 66 1018.6
20260906164530 69 38 0.0 0.0 0.00 0.00 0.00 70 1018.6
20260906163027 68 35 0.0 0.9 0.00 0.00 0.00 71 1018.6
20260906161529 67 312 0.0 0.0 0.00 0.00 0.00 76 1018.6
20260906160034 67 89 0.0 3.5 0.00 0.00 0.00 75 1018.5
20260906154536 67 83 0.0 0.0 0.00 0.00 0.00 78 1018.6
20260906153022 66 78 0.0 0.0 0.00 0.00 0.00 79 1018.4
20260906151518 67 118 0.0 0.9 0.00 0.00 0.00 78 1018.3
20260906150021 67 36 0.0 0.0 0.00 0.00 0.00 79 1018.4
20260906144518 67 20 0.0 0.9 0.00 0.00 0.00 80 1018.3
20260906143016 67 44 0.0 0.9 0.00 0.00 0.00 81 1018.3
20260906141513 67 89 0.0 0.0 0.00 0.00 0.00 79 1018.2
20260906140012 67 52 0.0 0.0 0.00 0.00 0.00 79 1017.9
20260906134510 66 52 0.0 0.0 0.00 0.00 0.00 82 1017.7
20260906133007 66 34 0.0 0.0 0.00 0.00 0.00 88 1017.8
20260906131508 66 60 0.0 0.0 0.00 0.00 0.00 86 1017.7
20260906130005 65 62 0.0 0.0 0.00 0.00 0.00 91 1017.6
20260906124600 64 95 0.0 0.0 0.00 0.00 0.00 94 1017.6
20260906123056 63 115 0.0 0.0 0.00 0.00 0.00 98 1017.4
20260906121553 63 332 0.0 0.0 0.00 0.00 0.00 98 1017.4
20260906120051 62 329 0.0 0.0 0.00 0.00 0.00 99 1017.2
20260906114550 60 329 0.0 0.0 0.00 0.00 0.00 98 1016.8
20260906113050 60 329 0.0 0.0 0.00 0.00 0.00 98 1016.7
20260906111546 59 329 0.0 0.0 0.00 0.00 0.00 98 1016.7
20260906110044 59 329 0.0 0.0 0.00 0.00 0.00 98 1016.5
20260906104543 59 329 0.0 0.0 0.00 0.00 0.00 98 1016.4
20260906103041 59 329 0.0 0.0 0.00 0.00 0.00 98 1016.2
20260906101541 59 329 0.0 0.0 0.00 0.00 0.00 98 1016.1
20260906100038 59 329 0.0 0.0 0.00 0.00 0.00 97 1015.9
20260906094537 60 329 0.0 0.0 0.00 0.00 0.00 97 1015.8
20260906093035 60 329 0.0 0.0 0.00 0.00 0.00 97 1015.7
20260906091534 60 329 0.0 0.0 0.00 0.00 0.00 97 1015.5
20260906090030 60 329 0.0 0.0 0.00 0.00 0.00 97 1015.3
20260906084528 60 329 0.0 0.0 0.00 0.00 0.00 97 1015.0
20260906083029 61 329 0.0 0.0 0.00 0.00 0.00 97 1014.9
20260906081534 61 329 0.0 0.0 0.00 0.00 0.00 97 1014.9
20260906080024 61 329 0.0 0.0 0.00 0.00 0.00 97 1014.9
20260906074524 61 329 0.0 0.0 0.00 0.00 0.00 97 1014.9
20260906073021 61 329 0.0 0.0 0.00 0.00 0.00 96 1014.7
20260906071520 62 329 0.0 0.0 0.00 0.00 0.00 97 1014.7
20260906070020 62 329 0.0 0.0 0.00 0.00 0.00 97 1014.7
20260906064519 62 329 0.0 0.0 0.00 0.00 0.00 97 1014.8
20260906063020 62 329 0.0 0.0 0.00 0.00 0.00 97 1014.9
20260906061518 62 329 0.0 0.0 0.00 0.00 0.00 96 1014.8
20260906060016 62 329 0.0 0.0 0.00 0.00 0.00 96 1014.8
20260906054516 62 329 0.0 0.0 0.00 0.00 0.00 96 1014.8
20260906053015 62 329 0.0 0.0 0.00 0.00 0.00 96 1014.9
20260906051512 62 329 0.0 0.0 0.00 0.00 0.00 96 1014.9
20260906050035 62 329 0.0 0.0 0.00 0.00 0.00 96 1014.9
20260906044509 62 329 0.0 0.0 0.00 0.00 0.00 96 1014.8
20260906043009 62 329 0.0 0.0 0.00 0.00 0.00 95 1014.7
20260906041507 62 329 0.0 0.0 0.00 0.00 0.00 95 1014.7
20260906040006 63 329 0.0 0.0 0.00 0.00 0.00 95 1014.6
20260906034503 63 329 0.0 0.0 0.00 0.00 0.00 94 1014.5
20260906033002 63 329 0.0 0.0 0.00 0.00 0.00 95 1014.5
20260906031502 63 329 0.0 0.0 0.00 0.00 0.00 94 1014.5
20260906030002 63 329 0.0 0.0 0.00 0.00 0.00 93 1014.4
20260906024603 63 329 0.0 0.0 0.00 0.00 0.00 93 1014.3
20260906023119 63 329 0.0 0.0 0.00 0.00 0.00 93 1014.3
20260906021611 63 329 0.0 0.0 0.00 0.00 0.00 92 1014.2
20260906014606 64 329 0.0 0.0 0.00 0.00 0.00 91 1014.2
20260906013056 65 329 0.0 0.0 0.00 0.00 0.00 90 1014.0
20260906011601 65 329 0.0 0.0 0.00 0.00 0.00 88 1014.1
20260906010056 66 329 0.0 0.0 0.00 0.00 0.00 88 1014.1
20260906004557 66 329 0.0 0.0 0.00 0.00 0.00 87 1013.9
20260906003104 66 329 0.0 0.0 0.00 0.00 0.00 86 1013.8
20260906001553 67 329 0.0 0.0 0.00 0.00 0.00 85 1013.8
20260906000053 67 329 0.0 0.0 0.00 0.00 0.00 85 1013.8
20260905234601 67 329 0.0 0.0 0.00 0.00 0.00 83 1013.8
20260905233052 68 329 0.0 0.0 0.00 0.00 0.00 82 1013.9
20260905231552 68 347 0.0 0.0 0.00 0.00 0.00 82 1014.0
20260905230053 68 349 0.0 0.0 0.00 0.00 0.00 81 1013.9
20260905224550 69 349 0.0 0.0 0.00 0.00 0.00 80 1014.0
20260905223051 69 9 0.0 0.0 0.00 0.00 0.00 79 1014.0
20260905221547 70 334 0.0 0.0 0.00 0.00 0.00 79 1013.8
20260905220049 70 8 0.0 0.0 0.00 0.00 0.00 79 1013.7
20260905214557 70 288 0.0 0.0 0.00 0.00 0.00 77 1013.6
20260905213047 71 18 0.0 0.0 0.00 0.00 0.00 77 1013.5
20260905211544 71 1 0.0 0.0 0.00 0.00 0.00 76 1013.3